Location: Newark
(40.8000°N, 14.5000°E)
Time: 17:12:41
(UTC+00:00)

OTV 5 (USA 277) - Pass Details

Date: 25 August 2019
Orbit: 310 x 324 km, 54.5° (Epoch: 08 October)

Event Time Altitude Azimuth Distance (km) Brightness Sun altitude
Rises 18:07:49 0° 210° (SSW) 2,027 ? -4.8°
Reaches altitude 10° 18:09:52 10° 200° (SSW) 1,201 ? -5.1°
Maximum altitude 18:12:18 33° 133° (SE) 552 ? -5.6°
Drops below altitude 10° 18:14:45 10° 66° (ENE) 1,205 ? -6.0°
Sets 18:16:48 0° 56° (ENE) 2,035 ? -6.4°
